Weather History for LKPR - December, 2013

Change the Weather History Date:

Tuesday, December 10, 2013

  Actual Average Record
Temperature  
Mean Temperature 42 °F -  
Max Temperature 46 °F 34 °F 46 °F (1997)
Min Temperature 39 °F 25 °F 10 °F (2002)
Degree Days  
Heating Degree Days 22    
Moisture  
Dew Point 40 °F    
Average Humidity 90    
Maximum Humidity 93    
Minimum Humidity 80    
Precipitation  
Precipitation 0.00 in 0.03 in - ()
Sea Level Pressure  
Sea Level Pressure 30.54 in    
Wind  
Wind Speed 6 mph ()    
Max Wind Speed 12 mph    
Max Gust Speed -    
Visibility 6.8 miles    
Events      
Averages and records for this station are not official NWS values.
T = Trace of Precipitation, MM = Missing Value Source: Averaged Metar Reports

Daily Weather History Graph

Daily Weather History Graph

Search for Another Location

Airport or City:

Trip Planner

Search our weather history database for the weather conditions in past years. The results will help you decide how hot, cold, wet, or windy it might be!

Date:

Astronomy

Dec. 10, 2013 Rise Set
Actual Time 7:50 AM CET 4:00 PM CET
Civil Twilight 7:12 AM CET 4:38 PM CET
Nautical Twilight 6:31 AM CET 5:20 PM CET
Astronomical Twilight 5:51 AM CET 5:59 PM CET
Moon 12:26 PM CET (12/10) 12:14 AM CET (12/10)
Length of Visible Light 9h 26m
Length of Day
8h 09m
First Quarter, 59% of the Moon is Illuminated
Dec 10
First Quarter
Dec 17
Full
Dec 25
Last Quarter
Jan 1
New
Jan 8
First Quarter

Hourly Weather History & Observations

Time (CET) Temp. Windchill Dew Point Humidity Pressure Visibility Wind Dir Wind Speed Gust Speed Precip Events Conditions
12:00 AM 41.0 °F 37.1 °F 39.2 °F 93% 30.42 in 6.2 mi West 5.8 mph - N/A   Overcast
12:30 AM 41.0 °F 35.8 °F 39.2 °F 93% 30.42 in 6.2 mi WSW 8.1 mph - N/A   Overcast
1:00 AM 42 °F - 39 °F 84% 30.47 in 19 mi West 6.7 mph - -   Partly Cloudy
1:00 AM 41.0 °F 36.4 °F 39.2 °F 93% 30.42 in 6.2 mi WSW 6.9 mph - N/A   Overcast
1:30 AM 41.0 °F 35.2 °F 39.2 °F 93% 30.42 in 6.2 mi WSW 9.2 mph - N/A   Overcast
2:00 AM 41.0 °F 34.3 °F 39.2 °F 93% 30.42 in 6.2 mi WSW 11.5 mph - N/A   Overcast
2:30 AM 41.0 °F 34.7 °F 39.2 °F 93% 30.42 in 6.2 mi WSW 10.4 mph - N/A   Mostly Cloudy
3:00 AM 41.0 °F 34.7 °F 37.4 °F 87% 30.45 in 6.2 mi WSW 10.4 mph - N/A   Partly Cloudy
3:30 AM 39.2 °F 33.0 °F 37.4 °F 93% 30.45 in 6.2 mi WSW 9.2 mph - N/A   Mostly Cloudy
4:00 AM 41.0 °F 35.8 °F 39.2 °F 93% 30.48 in 6.2 mi SW 8.1 mph - N/A   Mostly Cloudy
4:30 AM 41.0 °F 35.2 °F 39.2 °F 93% 30.48 in 6.2 mi WSW 9.2 mph - N/A   Mostly Cloudy
5:00 AM 41.0 °F 37.1 °F 39.2 °F 93% 30.48 in 6.2 mi WSW 5.8 mph - N/A   Mostly Cloudy
5:30 AM 41.0 °F 35.2 °F 39.2 °F 93% 30.48 in 6.2 mi WSW 9.2 mph - N/A   Mostly Cloudy
6:00 AM 41.0 °F 35.8 °F 39.2 °F 93% 30.48 in 6.2 mi WSW 8.1 mph - N/A   Mostly Cloudy
6:30 AM 41.0 °F 36.4 °F 39.2 °F 93% 30.51 in 6.2 mi SW 6.9 mph - N/A   Mostly Cloudy
7:00 AM 41 °F - 38 °F 87% 30.56 in 12 mi WSW 4.5 mph - -   Mostly Cloudy
7:00 AM 41.0 °F 37.1 °F 39.2 °F 93% 30.51 in 6.2 mi WSW 5.8 mph - N/A   Mostly Cloudy
7:30 AM 41.0 °F 35.8 °F 39.2 °F 93% 30.51 in 6.2 mi SW 8.1 mph - N/A   Mostly Cloudy
8:00 AM 41.0 °F 35.8 °F 39.2 °F 93% 30.51 in 6.2 mi SW 8.1 mph - N/A   Mostly Cloudy
8:30 AM 41.0 °F 36.4 °F 39.2 °F 93% 30.51 in 6.2 mi SSW 6.9 mph - N/A   Mostly Cloudy
9:00 AM 41.0 °F 36.4 °F 39.2 °F 93% 30.54 in 6.2 mi SSW 6.9 mph - N/A   Mostly Cloudy
9:30 AM 41.0 °F 35.8 °F 39.2 °F 93% 30.54 in 6.2 mi SW 8.1 mph - N/A   Mostly Cloudy
10:00 AM 42.8 °F 37.5 °F 41.0 °F 93% 30.54 in 6.2 mi SW 9.2 mph - N/A   Mostly Cloudy
10:30 AM 42.8 °F 38.0 °F 41.0 °F 93% 30.57 in 6.2 mi SW 8.1 mph - N/A   Mostly Cloudy
11:00 AM 44.6 °F 39.7 °F 41.0 °F 87% 30.57 in 6.2 mi WSW 9.2 mph - N/A   Mostly Cloudy
11:30 AM 44.6 °F 39.7 °F 41.0 °F 87% 30.57 in 6.2 mi WSW 9.2 mph - N/A   Mostly Cloudy
12:00 PM 44.6 °F 40.2 °F 41.0 °F 87% 30.57 in 6.2 mi WSW 8.1 mph - N/A   Mostly Cloudy
12:30 PM 46.4 °F 43.5 °F 41.0 °F 81% 30.57 in 6.2 mi SW 5.8 mph - N/A   Mostly Cloudy
1:00 PM 46 °F - 42 °F 80% 30.60 in 16 mi West 4.5 mph - -   Mostly Cloudy
1:00 PM 46.4 °F 43.5 °F 41.0 °F 81% 30.57 in 6.2 mi WSW 5.8 mph - N/A   Mostly Cloudy
1:30 PM 46.4 °F 45.2 °F 41.0 °F 81% 30.57 in 6.2 mi SW 3.5 mph - N/A   Mostly Cloudy
2:00 PM 46.4 °F 44.3 °F 41.0 °F 81% 30.57 in 6.2 mi SW 4.6 mph - N/A   Overcast
2:03 PM 46.4 °F 45.2 °F 41.0 °F 81% 30.57 in 6.2 mi SW 3.5 mph - N/A   Overcast
2:30 PM 46.4 °F 45.2 °F 41.0 °F 81% 30.57 in 6.2 mi SSW 3.5 mph - N/A   Overcast
3:00 PM 46.4 °F 43.5 °F 41.0 °F 81% 30.57 in 6.2 mi West 5.8 mph - N/A   Overcast
3:30 PM 44.6 °F 41.4 °F 42.8 °F 93% 30.57 in 6.2 mi SW 5.8 mph - N/A   Overcast
4:00 PM 44.6 °F 42.2 °F 42.8 °F 93% 30.60 in 6.2 mi WSW 4.6 mph - N/A   Overcast
4:30 PM 44.6 °F 43.1 °F 41.0 °F 87% 30.60 in 6.2 mi SSW 3.5 mph - N/A   Overcast
5:00 PM 42.8 °F 41.1 °F 41.0 °F 93% 30.60 in 6.2 mi SSW 3.5 mph - N/A   Overcast
5:30 PM 42.8 °F 40.1 °F 41.0 °F 93% 30.60 in 6.2 mi South 4.6 mph - N/A   Overcast
6:00 PM 44.6 °F 42.2 °F 41.0 °F 87% 30.60 in 6.2 mi South 4.6 mph - N/A   Overcast
6:30 PM 42.8 °F 41.1 °F 41.0 °F 93% 30.60 in 6.2 mi SSW 3.5 mph - N/A   Overcast
7:00 PM 44 °F - 42 °F 89% 30.63 in 9 mi SW 4.5 mph - -   Overcast
7:00 PM 42.8 °F 40.1 °F 41.0 °F 93% 30.60 in 6.2 mi SW 4.6 mph - N/A   Overcast
7:30 PM 44.6 °F 41.4 °F 41.0 °F 87% 30.60 in 6.2 mi SSW 5.8 mph - N/A   Overcast
8:00 PM 44.6 °F 42.2 °F 41.0 °F 87% 30.57 in 6.2 mi South 4.6 mph - N/A   Overcast
8:30 PM 42.8 °F 39.3 °F 41.0 °F 93% 30.60 in 6.2 mi South 5.8 mph - N/A   Overcast
9:00 PM 42.8 °F 39.3 °F 41.0 °F 93% 30.57 in 6.2 mi South 5.8 mph - N/A   Overcast
9:30 PM 42.8 °F 39.3 °F 39.2 °F 87% 30.57 in 6.2 mi South 5.8 mph - N/A   Overcast
10:00 PM 42.8 °F 39.3 °F 39.2 °F 87% 30.60 in 6.2 mi South 5.8 mph - N/A   Overcast
10:30 PM 42.8 °F 39.3 °F 39.2 °F 87% 30.57 in 6.2 mi South 5.8 mph - N/A   Overcast
11:00 PM 41.0 °F 38.0 °F 39.2 °F 93% 30.60 in 6.2 mi SSW 4.6 mph - N/A   Overcast
11:30 PM 41.0 °F 38.0 °F 39.2 °F 93% 30.60 in 6.2 mi SSW 4.6 mph - N/A   Overcast